| time (UTC) | temp F | wind direction | speed MPH | gust MPH | rain 1hr in | rain 24hr in | rain mn in | humidity % | barometer mb |
| 20260509182003 | 47 | 183 | 9.0 | 12.0 | 0.01 | 0.01 | 0.01 | 87 | 1014.6 |
| 20260509181024 | 48 | 191 | 10.0 | 13.0 | 0.00 | 0.00 | 0.00 | 87 | 1014.5 |
| 20260509180003 | 48 | 190 | 13.0 | 18.0 | 0.00 | 0.00 | 0.00 | 86 | 1014.6 |
| 20260509175003 | 48 | 199 | 15.0 | 17.0 | 0.00 | 0.00 | 0.00 | 86 | 1014.5 |
| 20260509174003 | 48 | 192 | 6.0 | 9.0 | 0.00 | 0.00 | 0.00 | 87 | 1014.4 |
| 20260509173002 | 48 | 197 | 5.0 | 8.0 | 0.00 | 0.00 | 0.00 | 87 | 1014.5 |
| 20260509172003 | 48 | 192 | 5.0 | 7.0 | 0.00 | 0.00 | 0.00 | 87 | 1014.5 |
| 20260509171003 | 48 | 182 | 4.0 | 8.0 | 0.00 | 0.00 | 0.00 | 87 | 1014.5 |
| 20260509170003 | 48 | 195 | 0.0 | 5.0 | 0.00 | 0.00 | 0.00 | 87 | 1014.6 |
| 20260509165003 | 48 | 177 | 4.0 | 6.0 | 0.00 | 0.00 | 0.00 | 87 | 1014.5 |
| 20260509164003 | 48 | 184 | 6.0 | 9.0 | 0.00 | 0.00 | 0.00 | 86 | 1014.7 |
| 20260509163002 | 48 | 171 | 9.0 | 13.0 | 0.00 | 0.00 | 0.00 | 86 | 1014.7 |
| 20260509162003 | 49 | 183 | 9.0 | 11.0 | 0.00 | 0.00 | 0.00 | 85 | 1014.8 |
| 20260509161003 | 49 | 159 | 6.0 | 10.0 | 0.00 | 0.00 | 0.00 | 85 | 1014.5 |
| 20260509160024 | 49 | 153 | 5.0 | 9.0 | 0.00 | 0.00 | 0.00 | 85 | 1014.5 |
| 20260509155003 | 49 | 150 | 5.0 | 10.0 | 0.00 | 0.00 | 0.00 | 85 | 1014.5 |
| 20260509154003 | 49 | 168 | 10.0 | 11.0 | 0.00 | 0.00 | 0.00 | 85 | 1014.5 |
| 20260509153003 | 49 | 173 | 6.0 | 8.0 | 0.00 | 0.00 | 0.00 | 84 | 1014.5 |
| 20260509152003 | 49 | 149 | 4.0 | 5.0 | 0.00 | 0.00 | 0.00 | 84 | 1014.4 |
| 20260509151002 | 49 | 138 | 3.0 | 7.0 | 0.00 | 0.00 | 0.00 | 84 | 1014.3 |
| 20260509150003 | 49 | 159 | 3.0 | 7.0 | 0.00 | 0.00 | 0.00 | 84 | 1014.2 |
| 20260509145003 | 49 | 151 | 4.0 | 4.0 | 0.00 | 0.00 | 0.00 | 84 | 1014.2 |
| 20260509144003 | 49 | 151 | 3.0 | 5.0 | 0.00 | 0.00 | 0.00 | 84 | 1014.1 |
| 20260509143045 | 50 | 151 | 3.0 | 5.0 | 0.00 | 0.00 | 0.00 | 83 | 1014.0 |
| 20260509141003 | 50 | 154 | 6.0 | 9.0 | 0.00 | 0.00 | 0.00 | 84 | 1014.2 |
| 20260509140002 | 49 | 148 | 5.0 | 8.0 | 0.00 | 0.00 | 0.00 | 83 | 1014.3 |
| 20260509135003 | 49 | 147 | 5.0 | 8.0 | 0.00 | 0.00 | 0.00 | 83 | 1014.1 |
| 20260509134002 | 49 | 141 | 5.0 | 6.0 | 0.00 | 0.00 | 0.00 | 82 | 1014.3 |
| 20260509133003 | 49 | 129 | 4.0 | 5.0 | 0.00 | 0.00 | 0.00 | 81 | 1014.4 |
| 20260509132024 | 49 | 130 | 4.0 | 5.0 | 0.00 | 0.00 | 0.00 | 81 | 1014.4 |
| 20260509131024 | 49 | 105 | 4.0 | 5.0 | 0.00 | 0.00 | 0.00 | 81 | 1014.5 |
| 20260509130003 | 48 | 106 | 3.0 | 5.0 | 0.00 | 0.00 | 0.00 | 80 | 1014.5 |
| 20260509125002 | 48 | 89 | 4.0 | 5.0 | 0.00 | 0.00 | 0.00 | 81 | 1014.4 |
| 20260509124003 | 48 | 63 | 3.0 | 6.0 | 0.00 | 0.00 | 0.00 | 81 | 1014.4 |
| 20260509123024 | 48 | 71 | 4.0 | 6.0 | 0.00 | 0.00 | 0.00 | 80 | 1014.4 |
| 20260509122002 | 48 | 65 | 3.0 | 6.0 | 0.00 | 0.00 | 0.00 | 79 | 1014.3 |
| 20260509121003 | 48 | 59 | 4.0 | 6.0 | 0.00 | 0.00 | 0.00 | 78 | 1014.2 |
| 20260509120002 | 47 | 78 | 3.0 | 4.0 | 0.00 | 0.00 | 0.00 | 79 | 1014.3 |
| 20260509115003 | 47 | 71 | 3.0 | 4.0 | 0.00 | 0.00 | 0.00 | 81 | 1014.3 |
| 20260509114003 | 47 | 53 | 3.0 | 4.0 | 0.00 | 0.00 | 0.00 | 82 | 1014.2 |
| 20260509113003 | 47 | 46 | 2.0 | 4.0 | 0.00 | 0.00 | 0.00 | 83 | 1014.3 |
| 20260509112003 | 47 | 49 | 2.0 | 4.0 | 0.00 | 0.00 | 0.00 | 84 | 1014.1 |
| 20260509111002 | 46 | 34 | 2.0 | 4.0 | 0.00 | 0.00 | 0.00 | 84 | 1014.0 |
| 20260509110003 | 46 | 33 | 2.0 | 3.0 | 0.00 | 0.00 | 0.00 | 85 | 1013.9 |
| 20260509105003 | 45 | 34 | 0.0 | 3.0 | 0.00 | 0.00 | 0.00 | 85 | 1013.9 |
| 20260509104003 | 44 | 34 | 2.0 | 3.0 | 0.00 | 0.00 | 0.00 | 86 | 1013.8 |
| 20260509103003 | 43 | 33 | 2.0 | 4.0 | 0.00 | 0.00 | 0.00 | 86 | 1013.6 |
| 20260509102002 | 43 | 32 | 3.0 | 4.0 | 0.00 | 0.00 | 0.00 | 85 | 1013.4 |
| 20260509101003 | 44 | 8 | 2.0 | 3.0 | 0.00 | 0.00 | 0.00 | 86 | 1013.3 |
| 20260509100002 | 43 | 291 | 2.0 | 2.0 | 0.00 | 0.00 | 0.00 | 86 | 1013.2 |
| 20260509095024 | 41 | 291 | 2.0 | 3.0 | 0.00 | 0.00 | 0.00 | 85 | 1013.2 |
| 20260509094003 | 40 | 291 | 1.0 | 2.0 | 0.00 | 0.00 | 0.00 | 81 | 1012.9 |
| 20260509093002 | 41 | 291 | 1.0 | 2.0 | 0.00 | 0.00 | 0.00 | 79 | 1012.9 |
| 20260509092024 | 42 | 291 | 0.0 | 5.0 | 0.00 | 0.00 | 0.00 | 79 | 1012.7 |
| 20260509091024 | 42 | 277 | 3.0 | 7.0 | 0.00 | 0.00 | 0.00 | 80 | 1012.6 |
| 20260509090003 | 42 | 276 | 6.0 | 7.0 | 0.00 | 0.00 | 0.00 | 81 | 1012.7 |
| 20260509085003 | 43 | 286 | 5.0 | 7.0 | 0.00 | 0.00 | 0.00 | 82 | 1012.6 |
| 20260509084002 | 43 | 271 | 4.0 | 8.0 | 0.00 | 0.00 | 0.00 | 83 | 1012.7 |
| 20260509083003 | 43 | 280 | 5.0 | 7.0 | 0.00 | 0.00 | 0.00 | 83 | 1012.8 |
| 20260509082002 | 43 | 277 | 5.0 | 7.0 | 0.00 | 0.00 | 0.00 | 83 | 1012.8 |
| 20260509081003 | 43 | 266 | 4.0 | 6.0 | 0.00 | 0.00 | 0.00 | 82 | 1012.7 |
| 20260509080003 | 43 | 263 | 4.0 | 6.0 | 0.00 | 0.00 | 0.00 | 83 | 1012.8 |
| 20260509075003 | 43 | 266 | 4.0 | 6.0 | 0.00 | 0.00 | 0.00 | 82 | 1012.6 |
| 20260509073003 | 43 | 260 | 3.0 | 6.0 | 0.00 | 0.00 | 0.00 | 80 | 1012.6 |
| 20260509072003 | 43 | 231 | 2.0 | 3.0 | 0.00 | 0.00 | 0.00 | 79 | 1012.6 |
| 20260509071002 | 43 | 231 | 2.0 | 3.0 | 0.00 | 0.00 | 0.00 | 78 | 1012.4 |
| 20260509070003 | 43 | 231 | 1.0 | 3.0 | 0.00 | 0.00 | 0.00 | 78 | 1012.4 |
| 20260509065002 | 43 | 231 | 2.0 | 3.0 | 0.00 | 0.00 | 0.00 | 78 | 1012.2 |
| 20260509064003 | 43 | 231 | 2.0 | 4.0 | 0.00 | 0.00 | 0.00 | 77 | 1012.1 |
| 20260509063003 | 43 | 272 | 2.0 | 4.0 | 0.00 | 0.00 | 0.00 | 77 | 1012.0 |
| 20260509062002 | 43 | 274 | 3.0 | 5.0 | 0.00 | 0.00 | 0.00 | 76 | 1011.9 |
| 20260509061024 | 43 | 275 | 4.0 | 7.0 | 0.00 | 0.00 | 0.00 | 76 | 1011.8 |
| 20260509060003 | 43 | 281 | 4.0 | 5.0 | 0.00 | 0.00 | 0.00 | 76 | 1011.7 |
| 20260509055003 | 44 | 281 | 4.0 | 5.0 | 0.00 | 0.00 | 0.00 | 75 | 1011.8 |
| 20260509054002 | 44 | 303 | 3.0 | 4.0 | 0.00 | 0.00 | 0.00 | 74 | 1011.8 |
| 20260509053003 | 44 | 303 | 3.0 | 5.0 | 0.00 | 0.00 | 0.00 | 73 | 1011.8 |
| 20260509052003 | 44 | 305 | 3.0 | 6.0 | 0.00 | 0.00 | 0.00 | 73 | 1011.8 |
| 20260509051003 | 44 | 306 | 3.0 | 7.0 | 0.00 | 0.00 | 0.00 | 73 | 1011.9 |
| 20260509050003 | 44 | 278 | 6.0 | 8.0 | 0.00 | 0.00 | 0.00 | 72 | 1011.8 |
| 20260509045003 | 44 | 337 | 2.0 | 6.0 | 0.00 | 0.00 | 0.00 | 67 | 1011.9 |
| 20260509044003 | 44 | 339 | 4.0 | 5.0 | 0.00 | 0.00 | 0.00 | 66 | 1011.9 |
| 20260509043003 | 44 | 336 | 4.0 | 7.0 | 0.00 | 0.00 | 0.00 | 66 | 1011.8 |
| 20260509042023 | 44 | 324 | 6.0 | 7.0 | 0.00 | 0.00 | 0.00 | 68 | 1011.6 |
| 20260509041003 | 44 | 324 | 5.0 | 6.0 | 0.00 | 0.00 | 0.00 | 68 | 1011.5 |
| 20260509040003 | 43 | 326 | 5.0 | 7.0 | 0.00 | 0.00 | 0.00 | 71 | 1011.5 |
| 20260509035045 | 42 | 322 | 6.0 | 7.0 | 0.00 | 0.00 | 0.00 | 73 | 1011.3 |
| 20260509034003 | 42 | 313 | 5.0 | 6.0 | 0.00 | 0.00 | 0.00 | 74 | 1011.3 |
| 20260509033003 | 42 | 305 | 4.0 | 6.0 | 0.00 | 0.00 | 0.00 | 73 | 1011.2 |
| 20260509032003 | 42 | 304 | 5.0 | 6.0 | 0.00 | 0.00 | 0.00 | 73 | 1011.1 |
| 20260509031002 | 42 | 312 | 5.0 | 6.0 | 0.00 | 0.00 | 0.00 | 72 | 1010.8 |
| 20260509030003 | 43 | 318 | 5.0 | 6.0 | 0.00 | 0.00 | 0.00 | 71 | 1010.7 |
| 20260509025003 | 44 | 299 | 4.0 | 6.0 | 0.00 | 0.00 | 0.00 | 69 | 1010.7 |
| 20260509024024 | 43 | 298 | 5.0 | 8.0 | 0.00 | 0.00 | 0.00 | 70 | 1010.7 |
| 20260509023003 | 43 | 302 | 5.0 | 6.0 | 0.00 | 0.00 | 0.00 | 73 | 1010.5 |
| 20260509022024 | 42 | 301 | 4.0 | 6.0 | 0.00 | 0.00 | 0.00 | 74 | 1010.3 |
| 20260509021003 | 42 | 299 | 4.0 | 4.0 | 0.00 | 0.00 | 0.00 | 73 | 1010.1 |
| 20260509020003 | 43 | 288 | 3.0 | 3.0 | 0.00 | 0.00 | 0.00 | 72 | 1010.0 |
| 20260509015002 | 44 | 287 | 3.0 | 4.0 | 0.00 | 0.00 | 0.00 | 71 | 1010.0 |
| 20260509014003 | 45 | 288 | 3.0 | 4.0 | 0.00 | 0.00 | 0.00 | 69 | 1010.0 |
| 20260509013003 | 45 | 288 | 3.0 | 4.0 | 0.00 | 0.00 | 0.00 | 69 | 1009.8 |
| 20260509012003 | 44 | 287 | 3.0 | 7.0 | 0.00 | 0.00 | 0.00 | 70 | 1009.6 |
| 20260509011003 | 44 | 304 | 3.0 | 6.0 | 0.00 | 0.00 | 0.00 | 73 | 1009.3 |
| 20260509010003 | 44 | 326 | 2.0 | 3.0 | 0.00 | 0.00 | 0.00 | 72 | 1009.1 |
| 20260509005003 | 46 | 326 | 2.0 | 3.0 | 0.00 | 0.00 | 0.00 | 69 | 1009.0 |
| 20260509004002 | 48 | 326 | 2.0 | 3.0 | 0.00 | 0.00 | 0.00 | 66 | 1008.8 |
| 20260509003003 | 50 | 326 | 2.0 | 3.0 | 0.00 | 0.00 | 0.00 | 59 | 1008.7 |
| 20260509002003 | 50 | 326 | 2.0 | 5.0 | 0.00 | 0.00 | 0.00 | 55 | 1008.6 |
| 20260509001002 | 51 | 305 | 2.0 | 8.0 | 0.00 | 0.00 | 0.00 | 54 | 1008.4 |
| 20260509000003 | 51 | 295 | 4.0 | 10.0 | 0.00 | 0.00 | 0.00 | 53 | 1008.3 |
| 20260508235002 | 52 | 289 | 9.0 | 16.0 | 0.00 | 0.00 | 0.00 | 52 | 1008.2 |
| 20260508234003 | 52 | 286 | 7.0 | 11.0 | 0.00 | 0.00 | 0.00 | 53 | 1008.1 |
| 20260508233003 | 53 | 292 | 5.0 | 9.0 | 0.00 | 0.00 | 0.00 | 53 | 1008.0 |
| 20260508232003 | 53 | 283 | 5.0 | 10.0 | 0.00 | 0.00 | 0.00 | 52 | 1007.9 |
| 20260508231003 | 54 | 293 | 5.0 | 10.0 | 0.00 | 0.00 | 0.00 | 51 | 1007.7 |
| 20260508230023 | 54 | 295 | 8.0 | 15.0 | 0.00 | 0.00 | 0.00 | 49 | 1007.7 |
| 20260508225003 | 54 | 291 | 9.0 | 15.0 | 0.00 | 0.00 | 0.00 | 50 | 1007.6 |
| 20260508224025 | 54 | 291 | 10.0 | 17.0 | 0.00 | 0.00 | 0.00 | 51 | 1007.5 |
| 20260508223002 | 55 | 280 | 9.0 | 17.0 | 0.00 | 0.00 | 0.00 | 54 | 1007.3 |
| 20260508222003 | 55 | 295 | 9.0 | 15.0 | 0.00 | 0.00 | 0.00 | 56 | 1007.2 |
| 20260508220003 | 52 | 265 | 4.0 | 8.0 | 0.00 | 0.00 | 0.00 | 77 | 1007.2 |
| 20260508215003 | 50 | 259 | 3.0 | 11.0 | 0.00 | 0.00 | 0.00 | 78 | 1007.2 |
| 20260508214003 | 49 | 266 | 5.0 | 10.0 | 0.00 | 0.00 | 0.00 | 78 | 1007.1 |
| 20260508213025 | 49 | 261 | 5.0 | 10.0 | 0.00 | 0.00 | 0.00 | 78 | 1007.0 |
| 20260508212003 | 50 | 238 | 5.0 | 11.0 | 0.00 | 0.00 | 0.00 | 78 | 1007.0 |
| 20260508211002 | 51 | 222 | 10.0 | 12.0 | 0.00 | 0.00 | 0.00 | 77 | 1006.8 |
| 20260508210003 | 51 | 227 | 7.0 | 9.0 | 0.00 | 0.00 | 0.00 | 75 | 1006.6 |
| 20260508205003 | 50 | 255 | 4.0 | 14.0 | 0.00 | 0.00 | 0.00 | 75 | 1006.7 |
| 20260508204003 | 49 | 273 | 7.0 | 18.0 | 0.00 | 0.00 | 0.00 | 78 | 1006.6 |
| 20260508203003 | 49 | 262 | 9.0 | 14.0 | 0.00 | 0.00 | 0.00 | 79 | 1006.4 |
| 20260508202003 | 49 | 230 | 7.0 | 11.0 | 0.00 | 0.00 | 0.00 | 80 | 1006.2 |
| 20260508201024 | 49 | 250 | 5.0 | 12.0 | 0.00 | 0.00 | 0.00 | 81 | 1006.2 |
| 20260508200024 | 48 | 235 | 5.0 | 11.0 | 0.00 | 0.00 | 0.00 | 81 | 1006.0 |
| 20260508195046 | 48 | 225 | 8.0 | 14.0 | 0.00 | 0.00 | 0.00 | 81 | 1006.1 |
| 20260508194003 | 49 | 214 | 10.0 | 14.0 | 0.00 | 0.00 | 0.00 | 80 | 1005.9 |
| 20260508193003 | 49 | 212 | 8.0 | 15.0 | 0.00 | 0.00 | 0.00 | 80 | 1005.8 |
| 20260508192003 | 49 | 217 | 9.0 | 12.0 | 0.00 | 0.00 | 0.00 | 79 | 1005.9 |
| 20260508191003 | 50 | 215 | 8.0 | 12.0 | 0.00 | 0.00 | 0.00 | 78 | 1006.0 |
| 20260508190004 | 50 | 224 | 9.0 | 12.0 | 0.00 | 0.00 | 0.00 | 78 | 1005.9 |
| 20260508185003 | 51 | 221 | 7.0 | 11.0 | 0.00 | 0.00 | 0.00 | 78 | 1005.9 |
| 20260508184024 | 49 | 225 | 8.0 | 13.0 | 0.00 | 0.00 | 0.00 | 80 | 1006.0 |
| 20260508183024 | 49 | 220 | 10.0 | 15.0 | 0.00 | 0.00 | 0.00 | 79 | 1006.1 |